This is the latest recevied weather packets stored in our database for station/object K5DLF-13. If no packets are shown the sender has not sent any weather packets the latest 10 day(s).
| Time | Temp. | Humidity | Pressure | Rain* | Wind** | Luminosity | Snow |
|---|---|---|---|---|---|---|---|
| 1778001597 | 26.11° C | 88% | 1007.4 hPa | 0 mm | - | 195 W/m² | - |
| 1778001297 | 26.11° C | 88% | 1007.5 hPa | 0 mm | - | 121 W/m² | - |
| 1778000997 | 26.11° C | 88% | 1007.5 hPa | 0 mm | - | 93 W/m² | - |
| 1778000698 | 26.11° C | 89% | 1007.5 hPa | 0 mm | - | 188 W/m² | - |
| 1778000398 | 26.11° C | 88% | 1007.5 hPa | 0 mm | - | 255 W/m² | - |
| 1778000098 | 26.11° C | 87% | 1007.6 hPa | 0 mm | - | 114 W/m² | - |
| 1777999797 | 26.11° C | 87% | 1007.4 hPa | 0 mm | - | 88 W/m² | - |
| 1777999497 | 26.11° C | 87% | 1007.4 hPa | 0 mm | - | 195 W/m² | - |
| 1777999197 | 26.11° C | 87% | 1007.4 hPa | 0 mm | - | 141 W/m² | - |
| 1777998897 | 26.11° C | 87% | 1007.4 hPa | 0 mm | - | 70 W/m² | - |
| 1777998597 | 26.11° C | 86% | 1007.4 hPa | 0 mm | - | 171 W/m² | - |
| 1777998297 | 26.11° C | 86% | 1007.4 hPa | 0 mm | - | 83 W/m² | - |
| 1777997997 | 26.11° C | 87% | 1007.4 hPa | 0 mm | - | 127 W/m² | - |
| 1777997697 | 26.11° C | 87% | 1007.3 hPa | 0 mm | - | 237 W/m² | - |
| 1777997397 | 26.11° C | 87% | 1007.3 hPa | 0 mm | - | 153 W/m² | - |
| 1777997097 | 26.11° C | 88% | 1007.2 hPa | 0 mm | - | 274 W/m² | - |
| 1777996797 | 26.11° C | 87% | 1007.2 hPa | 0 mm | - | 107 W/m² | - |
| 1777996497 | 26.11° C | 86% | 1007.3 hPa | 0 mm | - | 90 W/m² | - |
| 1777996197 | 26.11° C | 86% | 1007.2 hPa | 0 mm | - | 65 W/m² | - |
| 1777995897 | 26.67° C | 85% | 1007.2 hPa | 0 mm | - | 107 W/m² | - |
| 1777995597 | 26.67° C | 85% | 1007.2 hPa | 0 mm | - | 74 W/m² | - |
| 1777995298 | 26.67° C | 84% | 1007.1 hPa | 0 mm | - | 100 W/m² | - |
| 1777994997 | 26.67° C | 84% | 1007.1 hPa | 0 mm | - | 125 W/m² | - |
| 1777994697 | 27.22° C | 83% | 1007 hPa | 0 mm | - | 134 W/m² | - |
| 1777994398 | 27.22° C | 84% | 1007 hPa | 0 mm | - | 207 W/m² | - |
* Rain latest hour (hover to see other rain measurements)
** Current wind speed in m/s (hover to see current wind gust speed)